Terminal Aerodrome Forecast
Issued by NWS Jacksonville, FL

Home | Current Version | Previous Version | Text Only | Print | Product List | Glossary On
Versions: 1 2 3 4 5 6 7 8 9 10 11 12 13 14 15 16 17 18
000
FTUS42 KJAX 301100
TAFSSI
TAF
KSSI 301120Z 3012/3112 34005KT P6SM FEW015 FEW070
     FM301500 07006KT P6SM VCSH SCT060
     FM301800 09010KT P6SM SCT060
     FM310100 07006KT P6SM FEW070=

USA.gov is the U.S. government's official web portal to all federal, state and local government web resources and services.